Regional Weather Roundup
Issued by NWS

Home | Current Version | Previous Version | Text Only | Print | Product List | Glossary Off
Versions: 1 2 3 4 5 6 7 8 9 10 11 12 13 14 15 16 17 18 19 20 21 22 23 24 25 26 27 28 29 30 31 32 33 34 35 36 37 38 39 40 41 42 43 44 45 46 47 48 49 50

000
ASUS43 KLOT 041208
RWRIL

ILLINOIS REGIONAL WEATHER ROUNDUP
NATIONAL WEATHER SERVICE CHICAGO/ROMEOVILLE IL
700 AM CDT MON MAY 04 2015

NOTE: "FAIR" INDICATES FEW OR NO CLOUDS BELOW 12,000 FEET WITH NO
SIGNIFICANT WEATHER AND/OR OBSTRUCTIONS TO VISIBILITY.

* THESE STATIONS ARE NOT UNDER NWS QUALITY CONTROL. THEY ALSO MAY NOT
  REPORT WEATHER SUCH AS PRECIPITATION OR FOG.

ILZ001-002-007-009-015-016-024-041300-
NORTHWEST ILLINOIS

CITY           SKY/WX    TMP DP  RH WIND       PRES   REMARKS
MOLINE         CLOUDY    61  57  87 S8        29.99F
6HR MIN TEMP:  60; 6HR MAX TEMP:  68; 6HR PCP:  0.32;

STERLING*      CLOUDY    59  57  94 SW7       30.00F
SAVANNA*       CLOUDY    60  58  93 CALM      30.00R
$$

ILZ003-004-008-010-011-017-018-041300-
NORTH CENTRAL ILLINOIS

CITY           SKY/WX    TMP DP  RH WIND       PRES   REMARKS
ROCKFORD       CLOUDY    60  55  83 W5        30.00R
6HR MIN TEMP:  59; 6HR MAX TEMP:  65; 6HR PCP:  0.18;

FREEPORT*      CLOUDY    57  55  94 W6        30.01R
ROCHELLE*      LGT RAIN  58  57  95 NW3       30.01R
DE KALB*       CLOUDY    59  55  87 W7        30.00R
PERU*          CLOUDY    60  58  94 SW12      30.04R
$$

ILZ005-006-012>014-019>023-041300-
NORTHEAST ILLINOIS

CITY           SKY/WX    TMP DP  RH WIND       PRES   REMARKS
CHICAGO-OHARE  CLOUDY    59  55  87 S3        29.98R
6HR MIN TEMP:  58; 6HR MAX TEMP:  68; 6HR PCP: TRACE;

CHICAGO-MIDWAY CLOUDY    65  55  70 SW6       29.98R
6HR MIN TEMP:  64; 6HR MAX TEMP:  69; 6HR PCP: TRACE;

AURORA         CLOUDY    61  55  81 W7        29.99R
6HR MIN TEMP:  58; 6HR MAX TEMP:  67; 6HR PCP:  0.01;

LANSING*       CLOUDY    62  54  76 SW17G24   30.01R
JOLIET*        CLOUDY    62  60  94 S8        29.98F
WAUKEGAN       CLOUDY    60  56  86 VRB3      29.98R
6HR MIN TEMP:  55; 6HR MAX TEMP:  66; 6HR PCP: TRACE;

DUPAGE AIRPORT CLOUDY    62  55  77 SW8       29.98R
6HR MIN TEMP:  57; 6HR MAX TEMP:  65; 6HR PCP: TRACE;

KANKAKEE*      RAIN      60  58  93 S7        30.07R
WHEELING       CLOUDY    62  55  77 CALM      30.00R
6HR MIN TEMP:  59; 6HR MAX TEMP:  67; 6HR PCP: TRACE;

MORRIS*        CLOUDY    61  58  91 S16       29.95F
ROMEOVILLE*    LGT RAIN  61  57  85 SW17      29.95F
NORTHERLY ISL    N/A     64  53  67 W5          N/A
$$

LMZ740>746-041300-
SOUTHERN LAKE MICHIGAN

STATION/POSITION SKY/WX   TEMP    WIND        PRES    VSBY  WAVE
                          AIR SEA DIR/SP/G                  HT/PER
                          (F)     (DEG/KT/KT) (MB)    (MI)  (FT/S)
HARRISON CRIB              61     200/  5/  9   N/A
BURNHAM HARBOR             64     210/  4/  8   N/A
CALUMET HARBOR             62     190/  9/ 13   N/A
BURNS HARBOR               62     210/ 16/ 23 1015.9R
MICHIGAN CITY              63     160/ 16/ 22   N/A
MICHIGAN CITY 6N           56 49  250/ 14/ 21   N/A           2/ 3
ST. JOSEPH                 54 47  300/  6/  8   N/A           2/ 3
$$

ILZ025>027-034>036-040-047-049-050-058-095>099-041300-
WEST-CENTRAL ILLINOIS

CITY           SKY/WX    TMP DP  RH WIND       PRES   REMARKS
QUINCY         CLOUDY    65  56  72 SE5       30.03R
GALESBURG*     CLOUDY    59  58  96 E3        30.05R
MACOMB*        TSTM      59  59  99 SE9       30.06S
JACKSONVILLE*  LGT RAIN  67  60  77 N3        30.07R
PITTSFIELD*    CLOUDY    69  56  64 SW3       30.06R
$$

ILZ028>032-037-038-041>044-048-051>054-059>061-041300-
CENTRAL ILLINOIS

CITY           SKY/WX    TMP DP  RH WIND       PRES   REMARKS
PONTIAC        RAIN      61  59  95 SE9       30.05F
BLOOMINGTON    LGT RAIN  60  59  97 CALM      30.09R
DECATUR        LGT RAIN  62  56  80 SW9       30.08R
PEORIA         RAIN      62  58  86 SE6       30.06R FOG
6HR MIN TEMP:  62; 6HR MAX TEMP:  71; 6HR PCP:  0.64;

LACON*         CLOUDY    59  57  93 S7        30.04R
LINCOLN*       CLOUDY    63  58  83 CALM      30.05R
SPRINGFIELD    LGT RAIN  66  55  67 CALM      30.08R
6HR MIN TEMP:  65; 6HR MAX TEMP:  71; 6HR PCP: TRACE;

TAYLORVILLE    CLOUDY    61  54  77 S12       30.08R
$$

ILZ033-039-045-046-055>057-062-063-041300-
EAST-CENTRAL ILLINOIS

CITY           SKY/WX    TMP DP  RH WIND       PRES   REMARKS
CHAMPAIGN      LGT RAIN  60  54  80 W6        30.09R
DANVILLE*      CLOUDY    62  52  69 NW8       30.07R
MATTOON        LGT RAIN  64  50  60 SW9       30.07R
PARIS*         CLOUDY    66  51  57 SW18      30.08R
$$

ILZ079-100>102-041300-
SOUTHWEST ILLINOIS

CITY           SKY/WX    TMP DP  RH WIND       PRES   REMARKS
BELLEVILLE     CLOUDY    64  55  71 VRB2      30.09R
CAHOKIA*       CLOUDY    64  58  80 S5        30.08R
SPARTA*        CLOUDY    64  52  65 S9        30.12R
$$

ILZ064>066-069>071-074>076-080>082-084>086-088>090-092>094-041300-
SOUTH-CENTRAL ILLINOIS

CITY           SKY/WX    TMP DP  RH WIND       PRES   REMARKS
CARBONDALE     CLOUDY    62  51  67 S3        30.13R
6HR MIN TEMP:  57; 6HR MAX TEMP:  66;

CAIRO*         MOSUNNY   63  52  68 CALM      30.14R
EFFINGHAM*     CLOUDY    63  47  56 S6        30.11R
MARION         PTSUNNY   63  54  72 S6        30.15R
MT. VERNON     CLOUDY   N/A N/A N/A S6        30.12R
CENTRALIA*     CLOUDY    64  49  57 SW9       30.11R
SALEM*         CLOUDY    68  49  51 SW12      30.11R
METROPOLIS*    MOSUNNY   65  54  66 SW5       30.14R
$$

ILZ067-068-072-073-078-083-087-091-041300-
SOUTHEAST ILLINOIS

CITY           SKY/WX    TMP DP  RH WIND       PRES   REMARKS
LAWRENCEVILLE  CLOUDY    63  52  67 S6        30.11R
FLORA*         CLOUDY    64  50  60 S7        30.11R
FAIRFIELD*     CLOUDY    63  52  66 S6        30.11R
HARRISBURG*    CLOUDY    63  51  65 CALM      30.14R
ROBINSON*      CLOUDY    62  51  67 S8        30.11R
CARMI*         CLOUDY    61  50  67 S6        30.12R
$$

ABBREVIATIONS USED IN REMARKS
   TC - TEMPERATURE IN CELSIUS
  WCI - WIND CHILL INDEX
   HX - HEAT INDEX
  VSB - VISIBILITY
$$




USA.gov is the U.S. government's official web portal to all federal, state and local government web resources and services.